KD8UGJ Weather Reports


time (UTC)temp
C
wind
direction
speed
KPH
gust
KPH
rain 1hr
cm
rain 24hr
cm
rain mn
cm
humidity
%
barometer
mb
20260503233023 11 242 11.3 32.2 0.00 0.00 0.00 68 1013.3
20260503231524 12 217 14.5 32.2 0.00 0.00 0.00 68 1013.3
20260503230022 12 241 20.9 38.6 0.00 0.00 0.00 66 1013.2
20260503224522 14 253 25.7 38.6 0.00 0.00 0.00 60 1013.0
20260503223021 15 360 14.5 25.7 0.00 0.00 0.00 49 1012.9
20260503221520 15 360 16.1 27.4 0.00 0.00 0.00 49 1013.0
20260503220020 15 360 11.3 32.2 0.00 0.00 0.00 49 1013.0
20260503214519 15 360 14.5 32.2 0.00 0.00 0.00 48 1013.0
20260503213018 15 246 14.5 30.6 0.00 0.00 0.00 49 1013.2
20260503211523 15 360 12.9 30.6 0.00 0.00 0.00 49 1013.2
20260503210017 15 360 16.1 32.2 0.00 0.00 0.00 47 1013.3
20260503204514 15 360 16.1 32.2 0.00 0.00 0.00 49 1013.4
20260503203014 15 360 19.3 37.0 0.00 0.00 0.00 49 1013.5
20260503201513 15 360 24.1 38.6 0.00 0.00 0.00 47 1013.7
20260503200011 16 223 12.9 32.2 0.00 0.00 0.00 48 1013.8
20260503194510 15 277 12.9 33.8 0.00 0.00 0.00 47 1014.0
20260503193008 16 222 12.9 37.0 0.00 0.00 0.00 48 1014.1
20260503191507 16 221 12.9 37.0 0.00 0.00 0.00 48 1014.4
20260503190020 16 360 12.9 35.4 0.00 0.00 0.00 45 1014.7
20260503184508 16 360 12.9 43.5 0.00 0.00 0.00 47 1014.8
20260503183005 16 245 14.5 29.0 0.00 0.00 0.00 48 1014.8
20260503181501 16 360 11.3 33.8 0.00 0.00 0.00 48 1015.1
20260503180002 16 360 14.5 29.0 0.00 0.00 0.00 48 1015.2
20260503174558 16 360 9.7 35.4 0.00 0.00 0.00 50 1015.3
20260503173112 15 275 9.7 35.4 0.00 0.00 0.00 53 1015.4
20260503171554 15 360 16.1 35.4 0.00 0.00 0.00 51 1015.7
20260503081539 2 360 1.6 6.4 0.00 0.00 0.00 79 1017.7
20260503080129 2 360 3.2 6.4 0.00 0.00 0.00 78 1017.7
20260503071528 2 360 1.6 6.4 0.00 0.00 0.00 78 1017.8
20260503054525 2 360 0.0 4.8 0.00 0.00 0.00 78 1018.3
20260503053021 2 360 0.0 6.4 0.00 0.00 0.00 77 1018.4
20260503051515 2 360 0.0 4.8 0.00 0.00 0.00 77 1018.3
20260503050013 3 360 1.6 8.0 0.00 0.00 0.00 76 1018.3
20260503044514 3 360 1.6 6.4 0.00 0.00 0.00 75 1018.3
20260503043012 3 360 1.6 4.8 0.00 0.00 0.00 75 1018.2
20260503041517 3 360 0.0 4.8 0.00 0.00 0.00 76 1018.3
20260503040012 3 360 1.6 4.8 0.00 0.00 0.00 75 1018.3
20260503034512 4 360 1.6 4.8 0.00 0.00 0.00 75 1018.3
20260503033020 4 360 1.6 6.4 0.00 0.00 0.00 75 1018.4
20260503031510 5 360 0.0 4.8 0.00 0.00 0.00 78 1018.5
20260503030010 5 242 1.6 4.8 0.00 0.00 0.00 78 1018.5
20260503024513 5 255 0.0 3.2 0.00 0.00 0.00 77 1018.6
20260503023008 5 360 0.0 3.2 0.00 0.00 0.00 75 1018.7
20260503021509 5 257 0.0 1.6 0.00 0.00 0.00 74 1018.8
20260503020008 5 257 0.0 0.0 0.00 0.00 0.00 72 1018.7
20260503014508 5 257 0.0 0.0 0.00 0.00 0.00 72 1018.5
20260503013007 6 257 0.0 3.2 0.00 0.00 0.00 71 1018.6
20260503011508 6 360 1.6 3.2 0.00 0.00 0.00 69 1018.5
20260503010008 6 360 1.6 3.2 0.00 0.00 0.00 66 1018.4
20260503004520 6 258 1.6 4.8 0.00 0.00 0.00 68 1018.4
20260503003005 6 257 3.2 8.0 0.00 0.00 0.00 64 1018.4
20260503001504 7 269 3.2 9.7 0.00 0.00 0.00 64 1018.3
20260503000004 7 288 6.4 14.5 0.00 0.05 0.00 63 1018.2
20260502234505 7 360 8.0 16.1 0.00 0.05 0.00 61 1018.2